Time,TemperatureF,DewpointF,PressureIn,WindDirection,WindDirectionDegrees,WindSpeedMPH,WindSpeedGustMPH,Humidity,HourlyPrecipIn,Conditions,Clouds,dailyrainin,SoftwareType,DateUTC
2013-06-26 00:00:00,79.6,66.8,29.77,SSW,198,0.0,1.0,65,0.00,,,0.00,Wunderground v.1.13,2013-06-26 04:00:00,
2013-06-26 00:05:00,79.6,66.8,29.77,SSW,198,0.0,0.0,65,0.00,,,0.00,Wunderground v.1.13,2013-06-26 04:05:00,
2013-06-26 00:10:00,79.4,66.6,29.77,SSW,198,0.0,0.0,65,0.00,,,0.00,Wunderground v.1.13,2013-06-26 04:10:00,
2013-06-26 00:20:00,79.2,66.4,29.76,SSW,198,0.0,0.0,65,0.00,,,0.00,Wunderground v.1.13,2013-06-26 04:20:00,
2013-06-26 00:25:00,79.2,66.9,29.76,SSW,198,0.0,0.0,66,0.00,,,0.00,Wunderground v.1.13,2013-06-26 04:25:00,
2013-06-26 00:30:00,79.0,66.7,29.75,SSW,198,0.0,0.0,66,0.00,,,0.00,Wunderground v.1.13,2013-06-26 04:30:00,
2013-06-26 00:40:00,78.6,66.3,29.75,SSW,198,0.0,0.0,66,0.00,,,0.00,Wunderground v.1.13,2013-06-26 04:40:00,
2013-06-26 00:45:00,78.6,66.7,29.75,SSW,198,0.0,0.0,67,0.00,,,0.00,Wunderground v.1.13,2013-06-26 04:45:00,
2013-06-26 00:50:00,78.5,66.6,29.75,SSW,198,0.0,0.0,67,0.00,,,0.00,Wunderground v.1.13,2013-06-26 04:50:00,
2013-06-26 00:55:00,78.5,66.6,29.75,SSW,198,0.0,0.0,67,0.00,,,0.00,Wunderground v.1.13,2013-06-26 04:55:00,
2013-06-26 01:05:00,78.3,66.9,29.74,SSW,198,0.0,0.0,68,0.00,,,0.00,Wunderground v.1.13,2013-06-26 05:05:00,
2013-06-26 01:10:00,78.1,66.7,29.74,SSW,198,0.0,0.0,68,0.00,,,0.00,Wunderground v.1.13,2013-06-26 05:10:00,
2013-06-26 01:15:00,77.9,66.5,29.74,SSW,198,0.0,0.0,68,0.00,,,0.00,Wunderground v.1.13,2013-06-26 05:15:00,
2013-06-26 01:25:00,77.7,66.3,29.74,SSW,198,0.0,0.0,68,0.00,,,0.00,Wunderground v.1.13,2013-06-26 05:25:00,
2013-06-26 01:30:00,77.6,66.6,29.73,SSW,198,0.0,0.0,69,0.00,,,0.00,Wunderground v.1.13,2013-06-26 05:30:00,
2013-06-26 01:35:00,77.4,66.8,29.73,SSW,198,0.0,0.0,70,0.00,,,0.00,Wunderground v.1.13,2013-06-26 05:35:00,
2013-06-26 01:45:00,77.0,66.9,29.73,SSW,198,0.0,0.0,71,0.00,,,0.00,Wunderground v.1.13,2013-06-26 05:45:00,
2013-06-26 01:50:00,76.8,66.7,29.73,SSW,198,0.0,0.0,71,0.00,,,0.00,Wunderground v.1.13,2013-06-26 05:50:00,
2013-06-26 01:55:00,76.5,66.8,29.73,SSW,198,0.0,0.0,72,0.00,,,0.00,Wunderground v.1.13,2013-06-26 05:55:00,
2013-06-26 02:00:00,76.3,67.0,29.73,SSW,198,0.0,0.0,73,0.00,,,0.00,Wunderground v.1.13,2013-06-26 06:00:00,
2013-06-26 02:10:00,76.3,66.6,29.73,SSW,198,0.0,0.0,72,0.00,,,0.00,Wunderground v.1.13,2013-06-26 06:10:00,
2013-06-26 02:15:00,76.3,66.6,29.72,SSW,198,0.0,0.0,72,0.00,,,0.00,Wunderground v.1.13,2013-06-26 06:15:00,
2013-06-26 02:25:00,76.3,66.6,29.72,WSW,247,0.0,0.0,72,0.00,,,0.00,Wunderground v.1.13,2013-06-26 06:25:00,
2013-06-26 02:30:00,76.3,66.6,29.72,WSW,247,0.0,0.0,72,0.00,,,0.00,Wunderground v.1.13,2013-06-26 06:30:00,
2013-06-26 02:35:00,76.3,67.0,29.72,WSW,247,0.0,0.0,73,0.00,,,0.00,Wunderground v.1.13,2013-06-26 06:35:00,
2013-06-26 02:40:00,76.1,66.8,29.72,WSW,247,0.0,0.0,73,0.00,,,0.00,Wunderground v.1.13,2013-06-26 06:40:00,
2013-06-26 02:45:00,76.0,67.1,29.72,WSW,247,0.0,0.0,74,0.00,,,0.00,Wunderground v.1.13,2013-06-26 06:45:00,
2013-06-26 02:55:00,75.8,67.3,29.72,WSW,247,0.0,0.0,75,0.00,,,0.00,Wunderground v.1.13,2013-06-26 06:55:00,
2013-06-26 03:00:00,75.8,67.3,29.72,WSW,247,0.0,0.0,75,0.00,,,0.00,Wunderground v.1.13,2013-06-26 07:00:00,
2013-06-26 03:10:00,75.8,67.7,29.72,WSW,247,0.0,0.0,76,0.00,,,0.00,Wunderground v.1.13,2013-06-26 07:10:00,
2013-06-26 03:15:00,75.8,67.7,29.72,WSW,247,0.0,0.0,76,0.00,,,0.00,Wunderground v.1.13,2013-06-26 07:15:00,
2013-06-26 03:20:00,75.8,67.7,29.72,WSW,247,0.0,0.0,76,0.00,,,0.00,Wunderground v.1.13,2013-06-26 07:20:00,
2013-06-26 03:30:00,75.8,67.7,29.73,WSW,247,0.0,0.0,76,0.00,,,0.00,Wunderground v.1.13,2013-06-26 07:30:00,
2013-06-26 03:35:00,75.8,67.7,29.73,WSW,247,0.0,0.0,76,0.00,,,0.00,Wunderground v.1.13,2013-06-26 07:35:00,
2013-06-26 03:40:00,75.8,67.7,29.73,WSW,247,0.0,0.0,76,0.00,,,0.00,Wunderground v.1.13,2013-06-26 07:40:00,
2013-06-26 03:45:00,75.8,67.7,29.73,WSW,247,0.0,0.0,76,0.00,,,0.00,Wunderground v.1.13,2013-06-26 07:45:00,
2013-06-26 03:55:00,75.8,67.7,29.73,WSW,247,0.0,0.0,76,0.00,,,0.00,Wunderground v.1.13,2013-06-26 07:55:00,
2013-06-26 04:00:00,75.6,67.5,29.73,WSW,247,0.0,0.0,76,0.00,,,0.00,Wunderground v.1.13,2013-06-26 08:00:00,
2013-06-26 04:10:00,75.6,67.1,29.73,WSW,247,0.0,0.0,75,0.00,,,0.00,Wunderground v.1.13,2013-06-26 08:10:00,
2013-06-26 04:15:00,75.6,67.1,29.73,WSW,247,1.0,1.0,75,0.00,,,0.00,Wunderground v.1.13,2013-06-26 08:15:00,
2013-06-26 04:20:00,75.8,66.9,29.73,WSW,247,0.0,0.0,74,0.00,,,0.00,Wunderground v.1.13,2013-06-26 08:20:00,
2013-06-26 04:25:00,75.8,66.9,29.73,WSW,247,0.0,0.0,74,0.00,,,0.00,Wunderground v.1.13,2013-06-26 08:25:00,
2013-06-26 04:30:00,75.8,66.9,29.73,WSW,247,0.0,1.0,74,0.00,,,0.00,Wunderground v.1.13,2013-06-26 08:30:00,
2013-06-26 04:40:00,75.8,66.9,29.73,WSW,247,0.0,0.0,74,0.00,,,0.00,Wunderground v.1.13,2013-06-26 08:40:00,
2013-06-26 04:45:00,75.8,66.9,29.73,WSW,247,0.0,0.0,74,0.00,,,0.00,Wunderground v.1.13,2013-06-26 08:45:00,
2013-06-26 04:55:00,75.8,66.9,29.73,WSW,247,0.0,0.0,74,0.00,,,0.00,Wunderground v.1.13,2013-06-26 08:55:00,
2013-06-26 05:00:00,75.8,66.9,29.74,WSW,247,0.0,0.0,74,0.00,,,0.00,Wunderground v.1.13,2013-06-26 09:00:00,
2013-06-26 05:05:00,75.6,66.7,29.74,WSW,247,0.0,0.0,74,0.00,,,0.00,Wunderground v.1.13,2013-06-26 09:05:00,
2013-06-26 05:10:00,75.6,66.7,29.74,WSW,247,0.0,0.0,74,0.00,,,0.00,Wunderground v.1.13,2013-06-26 09:10:00,
2013-06-26 05:15:00,75.4,66.9,29.74,WSW,247,0.0,0.0,75,0.00,,,0.00,Wunderground v.1.13,2013-06-26 09:15:00,
2013-06-26 05:25:00,75.3,66.8,29.74,WSW,247,0.0,0.0,75,0.00,,,0.00,Wunderground v.1.13,2013-06-26 09:25:00,
2013-06-26 05:30:00,75.1,67.0,29.75,WSW,247,0.0,0.0,76,0.00,,,0.00,Wunderground v.1.13,2013-06-26 09:30:00,
2013-06-26 05:40:00,74.7,67.0,29.75,WSW,247,0.0,0.0,77,0.00,,,0.00,Wunderground v.1.13,2013-06-26 09:40:00,
2013-06-26 05:45:00,74.7,67.0,29.75,WSW,247,0.0,0.0,77,0.00,,,0.00,Wunderground v.1.13,2013-06-26 09:45:00,
2013-06-26 05:50:00,74.6,67.3,29.75,WSW,247,0.0,0.0,78,0.00,,,0.00,Wunderground v.1.13,2013-06-26 09:50:00,
2013-06-26 05:55:00,74.6,66.9,29.75,WSW,247,0.0,0.0,77,0.00,,,0.00,Wunderground v.1.13,2013-06-26 09:55:00,
2013-06-26 06:05:00,74.6,67.3,29.76,WSW,247,0.0,0.0,78,0.00,,,0.00,Wunderground v.1.13,2013-06-26 10:05:00,
2013-06-26 06:10:00,74.4,67.1,29.76,WSW,247,0.0,0.0,78,0.00,,,0.00,Wunderground v.1.13,2013-06-26 10:10:00,
2013-06-26 06:15:00,74.6,67.3,29.77,WSW,247,0.0,0.0,78,0.00,,,0.00,Wunderground v.1.13,2013-06-26 10:15:00,
2013-06-26 06:25:00,74.6,67.3,29.77,WSW,247,0.0,0.0,78,0.00,,,0.00,Wunderground v.1.13,2013-06-26 10:25:00,
2013-06-26 06:30:00,74.6,67.3,29.76,WSW,247,0.0,0.0,78,0.00,,,0.00,Wunderground v.1.13,2013-06-26 10:30:00,
2013-06-26 06:35:00,74.6,66.9,29.76,WSW,247,0.0,0.0,77,0.00,,,0.00,Wunderground v.1.13,2013-06-26 10:35:00,
2013-06-26 06:45:00,74.9,66.4,29.77,WSW,247,0.0,0.0,75,0.00,,,0.00,Wunderground v.1.13,2013-06-26 10:45:00,
2013-06-26 06:50:00,75.1,66.6,29.77,WSW,247,0.0,0.0,75,0.00,,,0.00,Wunderground v.1.13,2013-06-26 10:50:00,
2013-06-26 06:55:00,75.1,66.6,29.77,WSW,247,0.0,0.0,75,0.00,,,0.00,Wunderground v.1.13,2013-06-26 10:55:00,
2013-06-26 07:00:00,75.3,66.4,29.77,WSW,247,0.0,0.0,74,0.00,,,0.00,Wunderground v.1.13,2013-06-26 11:00:00,
2013-06-26 07:10:00,75.1,66.2,29.77,SE,128,0.0,0.0,74,0.00,,,0.00,Wunderground v.1.13,2013-06-26 11:10:00,
2013-06-26 07:15:00,75.1,66.2,29.78,SSE,158,0.0,0.0,74,0.00,,,0.00,Wunderground v.1.13,2013-06-26 11:15:00,
2013-06-26 07:25:00,75.3,66.4,29.78,SSW,202,0.0,1.0,74,0.00,,,0.00,Wunderground v.1.13,2013-06-26 11:25:00,
2013-06-26 07:30:00,75.4,66.1,29.78,SSW,202,0.0,0.0,73,0.00,,,0.00,Wunderground v.1.13,2013-06-26 11:30:00,
2013-06-26 07:35:00,75.6,66.7,29.78,SSW,202,0.0,0.0,74,0.00,,,0.00,Wunderground v.1.13,2013-06-26 11:35:00,
2013-06-26 07:45:00,75.8,66.1,29.78,SW,227,0.0,0.0,72,0.00,,,0.00,Wunderground v.1.13,2013-06-26 11:45:00,
2013-06-26 07:50:00,75.8,66.1,29.78,SW,227,0.0,0.0,72,0.00,,,0.00,Wunderground v.1.13,2013-06-26 11:50:00,
2013-06-26 07:55:00,76.0,66.3,29.78,SW,227,0.0,0.0,72,0.00,,,0.00,Wunderground v.1.13,2013-06-26 11:55:00,
2013-06-26 08:00:00,76.0,65.9,29.79,SW,227,0.0,0.0,71,0.00,,,0.00,Wunderground v.1.13,2013-06-26 12:00:00,
2013-06-26 08:10:00,76.1,66.0,29.79,SW,229,0.0,1.0,71,0.00,,,0.00,Wunderground v.1.13,2013-06-26 12:10:00,
2013-06-26 08:15:00,76.3,65.8,29.79,SW,229,0.0,0.0,70,0.00,,,0.00,Wunderground v.1.13,2013-06-26 12:15:00,
2013-06-26 08:20:00,76.3,65.8,29.79,SW,229,0.0,0.0,70,0.00,,,0.00,Wunderground v.1.13,2013-06-26 12:20:00,
2013-06-26 08:25:00,76.3,65.8,29.79,SW,229,0.0,0.0,70,0.00,,,0.00,Wunderground v.1.13,2013-06-26 12:25:00,
2013-06-26 08:30:00,76.5,66.0,29.79,SW,229,0.0,0.0,70,0.00,,,0.00,Wunderground v.1.13,2013-06-26 12:30:00,
2013-06-26 08:40:00,76.7,66.2,29.79,WSW,241,0.0,0.0,70,0.00,,,0.00,Wunderground v.1.13,2013-06-26 12:40:00,
2013-06-26 08:45:00,76.8,65.9,29.78,WSW,241,0.0,0.0,69,0.00,,,0.00,Wunderground v.1.13,2013-06-26 12:45:00,
2013-06-26 08:55:00,76.8,66.3,29.78,WSW,241,0.0,0.0,70,0.00,,,0.00,Wunderground v.1.13,2013-06-26 12:55:00,
2013-06-26 09:00:00,77.0,66.0,29.78,NNW,333,0.0,0.0,69,0.00,,,0.00,Wunderground v.1.13,2013-06-26 13:00:00,
2013-06-26 09:05:00,77.6,67.0,29.78,NNW,333,0.0,0.0,70,0.00,,,0.00,Wunderground v.1.13,2013-06-26 13:05:00,
2013-06-26 09:10:00,77.9,66.5,29.78,NNW,332,0.0,0.0,68,0.00,,,0.00,Wunderground v.1.13,2013-06-26 13:10:00,
2013-06-26 09:15:00,78.5,66.2,29.78,NNW,346,0.0,0.0,66,0.00,,,0.00,Wunderground v.1.13,2013-06-26 13:15:00,
2013-06-26 09:25:00,79.0,66.7,29.78,NE,52,0.0,0.0,66,0.00,,,0.00,Wunderground v.1.13,2013-06-26 13:25:00,
2013-06-26 09:30:00,79.2,66.4,29.78,NE,52,0.0,0.0,65,0.00,,,0.00,Wunderground v.1.13,2013-06-26 13:30:00,
2013-06-26 09:40:00,79.8,66.5,29.78,NE,56,0.0,0.0,64,0.00,,,0.00,Wunderground v.1.13,2013-06-26 13:40:00,
2013-06-26 09:50:00,80.1,66.4,29.78,NE,56,0.0,0.0,63,0.00,,,0.00,Wunderground v.1.13,2013-06-26 13:50:00,
2013-06-26 10:00:00,80.3,66.6,29.78,WSW,246,1.0,1.0,63,0.00,,,0.00,Wunderground v.1.13,2013-06-26 14:00:00,
2013-06-26 10:05:00,80.1,66.4,29.78,WSW,246,1.0,1.0,63,0.00,,,0.00,Wunderground v.1.13,2013-06-26 14:05:00,
2013-06-26 10:10:00,79.9,66.6,29.78,WSW,246,0.0,0.0,64,0.00,,,0.00,Wunderground v.1.13,2013-06-26 14:10:00,
2013-06-26 10:15:00,79.6,66.3,29.78,WSW,246,0.0,0.0,64,0.00,,,0.00,Wunderground v.1.13,2013-06-26 14:15:00,
2013-06-26 10:25:00,79.8,66.1,29.78,WNW,287,0.0,0.0,63,0.00,,,0.00,Wunderground v.1.13,2013-06-26 14:25:00,
2013-06-26 10:30:00,79.9,66.2,29.78,WNW,287,0.0,0.0,63,0.00,,,0.00,Wunderground v.1.13,2013-06-26 14:30:00,
2013-06-26 10:40:00,80.3,66.6,29.78,WNW,287,0.0,0.0,63,0.00,,,0.00,Wunderground v.1.13,2013-06-26 14:40:00,
2013-06-26 10:45:00,80.1,67.3,29.78,WNW,287,0.0,0.0,65,0.00,,,0.00,Wunderground v.1.13,2013-06-26 14:45:00,
2013-06-26 10:55:00,79.6,67.2,29.78,WNW,287,0.0,0.0,66,0.00,,,0.00,Wunderground v.1.13,2013-06-26 14:55:00,
2013-06-26 11:00:00,79.2,66.9,29.78,WNW,287,0.0,0.0,66,0.00,,,0.00,Wunderground v.1.13,2013-06-26 15:00:00,
2013-06-26 11:05:00,79.0,66.7,29.78,WNW,285,0.0,0.0,66,0.00,,,0.00,Wunderground v.1.13,2013-06-26 15:05:00,
2013-06-26 11:10:00,79.2,67.7,29.78,WNW,285,0.0,0.0,68,0.00,,,0.00,Wunderground v.1.13,2013-06-26 15:10:00,
2013-06-26 11:20:00,79.2,66.9,29.79,WNW,285,0.0,0.0,66,0.00,,,0.00,Wunderground v.1.13,2013-06-26 15:20:00,
2013-06-26 11:25:00,79.2,67.3,29.79,WNW,285,0.0,0.0,67,0.00,,,0.00,Wunderground v.1.13,2013-06-26 15:25:00,
2013-06-26 11:30:00,79.2,66.4,29.78,WNW,285,0.0,0.0,65,0.00,,,0.00,Wunderground v.1.13,2013-06-26 15:30:00,
2013-06-26 11:40:00,78.8,66.5,29.78,WNW,285,0.0,0.0,66,0.00,,,0.00,Wunderground v.1.13,2013-06-26 15:40:00,
2013-06-26 11:45:00,78.8,67.3,29.79,WNW,285,0.0,0.0,68,0.00,,,0.00,Wunderground v.1.13,2013-06-26 15:45:00,
2013-06-26 11:55:00,78.5,67.9,29.79,WNW,285,0.0,0.0,70,0.00,,,0.00,Wunderground v.1.13,2013-06-26 15:55:00,
2013-06-26 12:00:00,78.5,67.9,29.78,WNW,285,0.0,0.0,70,0.00,,,0.00,Wunderground v.1.13,2013-06-26 16:00:00,
2013-06-26 12:05:00,78.5,67.5,29.78,WNW,285,0.0,0.0,69,0.00,,,0.00,Wunderground v.1.13,2013-06-26 16:05:00,
2013-06-26 12:15:00,78.3,67.7,29.79,WNW,285,0.0,0.0,70,0.00,,,0.00,Wunderground v.1.13,2013-06-26 16:15:00,
2013-06-26 12:20:00,78.3,68.1,29.79,WNW,285,0.0,0.0,71,0.00,,,0.00,Wunderground v.1.13,2013-06-26 16:20:00,
2013-06-26 12:30:00,78.1,67.5,29.79,WNW,285,0.0,0.0,70,0.00,,,0.00,Wunderground v.1.13,2013-06-26 16:30:00,
2013-06-26 12:35:00,78.1,67.5,29.79,WNW,285,0.0,0.0,70,0.00,,,0.00,Wunderground v.1.13,2013-06-26 16:35:00,
2013-06-26 12:40:00,77.9,67.3,29.79,WNW,285,0.0,0.0,70,0.00,,,0.00,Wunderground v.1.13,2013-06-26 16:40:00,
2013-06-26 12:45:00,77.7,67.5,29.79,WNW,285,0.0,0.0,71,0.00,,,0.00,Wunderground v.1.13,2013-06-26 16:45:00,
2013-06-26 12:55:00,77.6,67.4,29.79,WNW,285,0.0,0.0,71,0.00,,,0.00,Wunderground v.1.13,2013-06-26 16:55:00,
2013-06-26 13:00:00,77.6,67.9,29.79,WNW,285,0.0,0.0,72,0.00,,,0.00,Wunderground v.1.13,2013-06-26 17:00:00,
2013-06-26 13:10:00,77.7,67.5,29.79,WNW,285,0.0,0.0,71,0.00,,,0.00,Wunderground v.1.13,2013-06-26 17:10:00,
2013-06-26 13:15:00,77.7,67.5,29.79,WNW,285,0.0,0.0,71,0.00,,,0.00,Wunderground v.1.13,2013-06-26 17:15:00,
2013-06-26 13:20:00,77.9,68.5,29.79,WNW,285,0.0,0.0,73,0.00,,,0.00,Wunderground v.1.13,2013-06-26 17:20:00,
2013-06-26 13:30:00,78.1,68.7,29.80,WNW,285,0.0,0.0,73,0.00,,,0.00,Wunderground v.1.13,2013-06-26 17:30:00,
2013-06-26 13:40:00,77.9,68.1,29.80,WNW,285,0.0,0.0,72,0.00,,,0.00,Wunderground v.1.13,2013-06-26 17:40:00,
2013-06-26 13:49:00,78.3,68.5,29.80,WNW,284,0.0,0.0,72,0.00,,,0.00,Wunderground v.1.13,2013-06-26 17:49:00,
2013-06-26 13:59:00,78.6,68.0,29.80,West,275,0.0,0.0,70,0.00,,,0.00,Wunderground v.1.13,2013-06-26 17:59:00,
2013-06-26 14:05:00,79.0,68.4,29.78,West,275,0.0,0.0,70,0.00,,,0.00,Wunderground v.1.13,2013-06-26 18:05:00,
2013-06-26 14:14:00,80.5,68.5,29.78,West,275,0.0,0.0,67,0.00,,,0.00,Wunderground v.1.13,2013-06-26 18:14:00,
2013-06-26 14:20:00,80.7,68.3,29.78,West,280,0.0,2.0,66,0.00,,,0.00,Wunderground v.1.13,2013-06-26 18:20:00,
2013-06-26 14:25:00,81.1,68.7,29.78,West,280,0.0,0.0,66,0.00,,,0.00,Wunderground v.1.13,2013-06-26 18:25:00,
2013-06-26 14:30:00,81.2,68.3,29.79,West,274,1.0,1.0,65,0.00,,,0.00,Wunderground v.1.13,2013-06-26 18:30:00,
2013-06-26 14:39:00,81.1,67.3,29.79,SE,140,0.0,0.0,63,0.00,,,0.00,Wunderground v.1.13,2013-06-26 18:39:00,
2013-06-26 14:44:00,81.1,66.4,29.79,WNW,287,1.0,1.0,61,0.00,,,0.00,Wunderground v.1.13,2013-06-26 18:44:00,
2013-06-26 14:50:00,80.9,67.1,29.78,SW,227,0.0,0.0,63,0.00,,,0.00,Wunderground v.1.13,2013-06-26 18:50:00,
2013-06-26 14:55:00,80.9,67.1,29.78,West,271,0.0,0.0,63,0.00,,,0.00,Wunderground v.1.13,2013-06-26 18:55:00,
2013-06-26 15:00:00,80.7,66.5,29.78,SSE,152,1.0,1.0,62,0.00,,,0.00,Wunderground v.1.13,2013-06-26 19:00:00,
2013-06-26 15:09:00,80.7,66.9,29.78,WSW,240,1.0,1.0,63,0.00,,,0.00,Wunderground v.1.13,2013-06-26 19:09:00,
2013-06-26 15:15:00,80.7,66.5,29.78,SW,220,0.0,0.0,62,0.00,,,0.00,Wunderground v.1.13,2013-06-26 19:15:00,
2013-06-26 15:20:00,80.9,66.7,29.77,SW,220,0.0,0.0,62,0.00,,,0.00,Wunderground v.1.13,2013-06-26 19:20:00,
2013-06-26 15:25:00,81.1,67.3,29.77,SW,220,0.0,3.0,63,0.00,,,0.00,Wunderground v.1.13,2013-06-26 19:25:00,
2013-06-26 15:30:00,81.1,67.3,29.77,SW,220,0.0,0.0,63,0.00,,,0.00,Wunderground v.1.13,2013-06-26 19:30:00,
2013-06-26 15:35:00,81.4,68.1,29.77,SW,220,0.0,0.0,64,0.00,,,0.00,Wunderground v.1.13,2013-06-26 19:35:00,
2013-06-26 15:45:00,81.8,68.0,29.77,SW,220,0.0,0.0,63,0.00,,,0.00,Wunderground v.1.13,2013-06-26 19:45:00,
2013-06-26 15:50:00,82.0,68.2,29.77,SW,220,0.0,0.0,63,0.00,,,0.00,Wunderground v.1.13,2013-06-26 19:50:00,
2013-06-26 15:55:00,82.2,67.4,29.77,SW,220,0.0,0.0,61,0.00,,,0.00,Wunderground v.1.13,2013-06-26 19:55:00,
2013-06-26 16:00:00,82.4,67.6,29.76,SW,220,0.0,0.0,61,0.00,,,0.00,Wunderground v.1.13,2013-06-26 20:00:00,
2013-06-26 16:10:00,82.4,67.1,29.76,SW,220,0.0,1.0,60,0.00,,,0.00,Wunderground v.1.13,2013-06-26 20:10:00,
2013-06-26 16:15:00,82.4,67.6,29.76,SW,220,0.0,0.0,61,0.00,,,0.00,Wunderground v.1.13,2013-06-26 20:15:00,
2013-06-26 16:20:00,82.2,67.4,29.76,SW,217,0.0,0.0,61,0.00,,,0.00,Wunderground v.1.13,2013-06-26 20:20:00,
2013-06-26 16:25:00,82.2,67.9,29.76,SW,217,0.0,0.0,62,0.00,,,0.00,Wunderground v.1.13,2013-06-26 20:25:00,
2013-06-26 16:30:00,82.4,68.1,29.76,SW,217,0.0,0.0,62,0.00,,,0.00,Wunderground v.1.13,2013-06-26 20:30:00,
2013-06-26 16:40:00,82.8,67.5,29.76,SW,217,0.0,0.0,60,0.00,,,0.00,Wunderground v.1.13,2013-06-26 20:40:00,
2013-06-26 16:45:00,82.8,68.0,29.75,SW,217,0.0,0.0,61,0.00,,,0.00,Wunderground v.1.13,2013-06-26 20:45:00,
2013-06-26 16:50:00,82.6,68.3,29.75,SW,217,0.0,0.0,62,0.00,,,0.00,Wunderground v.1.13,2013-06-26 20:50:00,
2013-06-26 16:55:00,82.6,68.3,29.75,SW,217,0.0,0.0,62,0.00,,,0.00,Wunderground v.1.13,2013-06-26 20:55:00,
2013-06-26 17:00:00,82.6,68.7,29.75,SW,217,0.0,0.0,63,0.00,,,0.00,Wunderground v.1.13,2013-06-26 21:00:00,
2013-06-26 17:10:00,82.4,69.0,29.75,SW,217,0.0,0.0,64,0.00,,,0.00,Wunderground v.1.13,2013-06-26 21:10:00,
2013-06-26 17:15:00,82.2,68.3,29.75,SW,217,0.0,0.0,63,0.00,,,0.00,Wunderground v.1.13,2013-06-26 21:15:00,
2013-06-26 17:20:00,82.2,68.8,29.75,SW,217,0.0,0.0,64,0.00,,,0.00,Wunderground v.1.13,2013-06-26 21:20:00,
2013-06-26 17:30:00,82.0,69.1,29.75,SW,217,0.0,0.0,65,0.00,,,0.00,Wunderground v.1.13,2013-06-26 21:30:00,
2013-06-26 17:35:00,81.8,69.3,29.75,SW,217,0.0,0.0,66,0.00,,,0.00,Wunderground v.1.13,2013-06-26 21:35:00,
2013-06-26 17:40:00,81.4,68.5,29.75,SW,217,0.0,0.0,65,0.00,,,0.00,Wunderground v.1.13,2013-06-26 21:40:00,
2013-06-26 17:45:00,81.4,69.4,29.75,SW,217,0.0,0.0,67,0.00,,,0.00,Wunderground v.1.13,2013-06-26 21:45:00,
2013-06-26 17:55:00,81.6,69.1,29.75,SW,217,0.0,1.0,66,0.00,,,0.00,Wunderground v.1.13,2013-06-26 21:55:00,
2013-06-26 18:00:00,81.6,70.0,29.75,SW,217,0.0,0.0,68,0.00,,,0.00,Wunderground v.1.13,2013-06-26 22:00:00,
2013-06-26 18:05:00,81.6,70.9,29.75,SW,217,0.0,0.0,70,0.00,,,0.00,Wunderground v.1.13,2013-06-26 22:05:00,
2013-06-26 18:10:00,81.6,69.1,29.75,SW,217,0.0,0.0,66,0.00,,,0.00,Wunderground v.1.13,2013-06-26 22:10:00,
2013-06-26 18:15:00,82.0,70.0,29.75,SW,217,0.0,0.0,67,0.00,,,0.00,Wunderground v.1.13,2013-06-26 22:15:00,
2013-06-26 18:25:00,82.0,69.5,29.75,SW,217,0.0,0.0,66,0.00,,,0.00,Wunderground v.1.13,2013-06-26 22:25:00,
2013-06-26 18:30:00,82.0,70.0,29.75,SW,217,0.0,0.0,67,0.00,,,0.00,Wunderground v.1.13,2013-06-26 22:30:00,
2013-06-26 18:35:00,81.8,70.2,29.75,SW,217,0.0,0.0,68,0.00,,,0.00,Wunderground v.1.13,2013-06-26 22:35:00,
2013-06-26 18:40:00,81.6,70.4,29.75,SW,217,0.0,0.0,69,0.00,,,0.00,Wunderground v.1.13,2013-06-26 22:40:00,
2013-06-26 18:50:00,81.2,70.5,29.75,SW,217,0.0,0.0,70,0.00,,,0.00,Wunderground v.1.13,2013-06-26 22:50:00,
2013-06-26 18:55:00,81.2,70.9,29.75,SW,217,0.0,0.0,71,0.00,,,0.00,Wunderground v.1.13,2013-06-26 22:55:00,
2013-06-26 19:00:00,81.2,71.3,29.75,SW,217,0.0,0.0,72,0.00,,,0.00,Wunderground v.1.13,2013-06-26 23:00:00,
2013-06-26 19:10:00,81.1,71.6,29.75,SW,217,0.0,0.0,73,0.00,,,0.00,Wunderground v.1.13,2013-06-26 23:10:00,
2013-06-26 19:15:00,80.9,71.4,29.76,SW,217,0.0,0.0,73,0.00,,,0.00,Wunderground v.1.13,2013-06-26 23:15:00,
2013-06-26 19:20:00,80.7,71.6,29.76,SW,217,0.0,0.0,74,0.00,,,0.00,Wunderground v.1.13,2013-06-26 23:20:00,
2013-06-26 19:25:00,80.7,71.6,29.76,SW,217,0.0,0.0,74,0.00,,,0.00,Wunderground v.1.13,2013-06-26 23:25:00,
2013-06-26 19:30:00,80.5,71.4,29.76,SW,217,0.0,0.0,74,0.00,,,0.00,Wunderground v.1.13,2013-06-26 23:30:00,
2013-06-26 19:40:00,80.5,71.0,29.76,SW,217,0.0,0.0,73,0.00,,,0.00,Wunderground v.1.13,2013-06-26 23:40:00,
2013-06-26 19:45:00,80.3,70.9,29.76,North,0,0.0,5.0,73,0.00,,,0.00,Wunderground v.1.13,2013-06-26 23:45:00,
2013-06-26 19:50:00,79.8,70.4,29.76,NNE,20,1.0,1.0,73,0.00,,,0.00,Wunderground v.1.13,2013-06-26 23:50:00,
2013-06-26 19:55:00,79.4,70.4,29.76,NE,41,1.0,1.0,74,0.00,,,0.00,Wunderground v.1.13,2013-06-26 23:55:00,
2013-06-26 20:00:00,79.0,70.0,29.76,NE,41,0.0,1.0,74,0.00,,,0.00,Wunderground v.1.13,2013-06-27 00:00:00,
2013-06-26 20:10:00,78.5,69.9,29.76,NE,41,0.0,0.0,75,0.00,,,0.00,Wunderground v.1.13,2013-06-27 00:10:00,
2013-06-26 20:15:00,78.5,69.9,29.76,NE,41,0.0,0.0,75,0.00,,,0.00,Wunderground v.1.13,2013-06-27 00:15:00,
2013-06-26 20:20:00,78.5,69.5,29.76,NE,41,0.0,0.0,74,0.00,,,0.00,Wunderground v.1.13,2013-06-27 00:20:00,
2013-06-26 20:30:00,77.7,68.7,29.76,NE,41,0.0,0.0,74,0.00,,,0.00,Wunderground v.1.13,2013-06-27 00:30:00,
2013-06-26 20:35:00,77.7,68.7,29.76,NE,41,0.0,0.0,74,0.00,,,0.00,Wunderground v.1.13,2013-06-27 00:35:00,
2013-06-26 20:40:00,77.7,68.7,29.76,NE,41,0.0,0.0,74,0.00,,,0.00,Wunderground v.1.13,2013-06-27 00:40:00,
2013-06-26 20:50:00,76.7,69.7,29.76,NE,41,0.0,0.0,79,0.00,,,0.00,Wunderground v.1.13,2013-06-27 00:50:00,
2013-06-26 20:55:00,76.5,69.5,29.76,NE,41,0.0,0.0,79,0.00,,,0.00,Wunderground v.1.13,2013-06-27 00:55:00,
2013-06-26 21:00:00,76.1,69.5,29.75,NE,41,0.0,0.0,80,0.00,,,0.00,Wunderground v.1.13,2013-06-27 01:00:00,
2013-06-26 21:05:00,75.8,69.6,29.75,NE,41,0.0,0.0,81,0.00,,,0.00,Wunderground v.1.13,2013-06-27 01:05:00,
2013-06-26 21:15:00,74.9,69.4,29.75,NE,51,0.0,0.0,83,0.00,,,0.00,Wunderground v.1.13,2013-06-27 01:15:00,
2013-06-26 21:20:00,74.9,69.4,29.75,NE,51,0.0,0.0,83,0.00,,,0.00,Wunderground v.1.13,2013-06-27 01:20:00,
2013-06-26 21:25:00,74.7,69.2,29.75,NE,51,0.0,0.0,83,0.00,,,0.00,Wunderground v.1.13,2013-06-27 01:25:00,
2013-06-26 21:30:00,74.7,69.2,29.76,NE,51,0.0,0.0,83,0.00,,,0.00,Wunderground v.1.13,2013-06-27 01:30:00,
2013-06-26 21:40:00,74.6,69.1,29.76,NE,51,0.0,0.0,83,0.00,,,0.00,Wunderground v.1.13,2013-06-27 01:40:00,
2013-06-26 21:45:00,74.6,69.1,29.77,NE,51,0.0,0.0,83,0.00,,,0.00,Wunderground v.1.13,2013-06-27 01:45:00,
2013-06-26 21:50:00,74.4,69.2,29.77,NE,51,0.0,0.0,84,0.00,,,0.00,Wunderground v.1.13,2013-06-27 01:50:00,
2013-06-26 21:55:00,74.2,69.1,29.77,NE,51,0.0,0.0,84,0.00,,,0.00,Wunderground v.1.13,2013-06-27 01:55:00,
2013-06-26 22:00:00,74.0,68.9,29.77,NE,51,0.0,0.0,84,0.00,,,0.00,Wunderground v.1.13,2013-06-27 02:00:00,
2013-06-26 22:10:00,73.9,69.1,29.77,NE,51,0.0,0.0,85,0.00,,,0.00,Wunderground v.1.13,2013-06-27 02:10:00,
2013-06-26 22:15:00,73.7,68.9,29.76,NE,51,0.0,0.0,85,0.00,,,0.00,Wunderground v.1.13,2013-06-27 02:15:00,
2013-06-26 22:20:00,73.5,69.1,29.76,NE,51,0.0,0.0,86,0.00,,,0.00,Wunderground v.1.13,2013-06-27 02:20:00,
2013-06-26 22:25:00,73.3,68.9,29.76,NE,51,0.0,0.0,86,0.00,,,0.00,Wunderground v.1.13,2013-06-27 02:25:00,
2013-06-26 22:30:00,73.2,68.8,29.77,NE,51,0.0,0.0,86,0.00,,,0.00,Wunderground v.1.13,2013-06-27 02:30:00,
2013-06-26 22:40:00,73.0,68.9,29.77,NE,51,0.0,0.0,87,0.00,,,0.00,Wunderground v.1.13,2013-06-27 02:40:00,
2013-06-26 22:45:00,72.8,68.7,29.78,NE,51,0.0,0.0,87,0.00,,,0.00,Wunderground v.1.13,2013-06-27 02:45:00,
2013-06-26 22:50:00,72.7,68.6,29.78,NE,51,0.0,0.0,87,0.00,,,0.00,Wunderground v.1.13,2013-06-27 02:50:00,
2013-06-26 22:55:00,72.5,68.4,29.78,NE,51,0.0,0.0,87,0.00,,,0.00,Wunderground v.1.13,2013-06-27 02:55:00,
2013-06-26 23:05:00,72.3,68.5,29.78,NE,51,0.0,0.0,88,0.00,,,0.00,Wunderground v.1.13,2013-06-27 03:05:00,
2013-06-26 23:10:00,72.3,68.9,29.78,NE,51,0.0,0.0,89,0.00,,,0.00,Wunderground v.1.13,2013-06-27 03:10:00,
2013-06-26 23:15:00,72.3,68.9,29.78,NE,51,0.0,0.0,89,0.00,,,0.00,Wunderground v.1.13,2013-06-27 03:15:00,
2013-06-26 23:20:00,72.3,68.9,29.78,NE,51,0.0,0.0,89,0.00,,,0.00,Wunderground v.1.13,2013-06-27 03:20:00,
2013-06-26 23:25:00,72.5,69.1,29.78,NE,51,0.0,0.0,89,0.00,,,0.00,Wunderground v.1.13,2013-06-27 03:25:00,
2013-06-26 23:30:00,72.5,68.7,29.78,NE,51,0.0,0.0,88,0.00,,,0.00,Wunderground v.1.13,2013-06-27 03:30:00,
2013-06-26 23:40:00,72.3,68.5,29.78,NE,51,0.0,0.0,88,0.00,,,0.00,Wunderground v.1.13,2013-06-27 03:40:00,
2013-06-26 23:45:00,72.3,68.9,29.78,NE,51,0.0,0.0,89,0.00,,,0.00,Wunderground v.1.13,2013-06-27 03:45:00,
2013-06-26 23:50:00,72.1,68.7,29.78,NE,51,0.0,0.0,89,0.00,,,0.00,Wunderground v.1.13,2013-06-27 03:50:00,
2013-06-26 23:55:00,72.1,68.7,29.78,NE,51,0.0,0.0,89,0.00,,,0.00,Wunderground v.1.13,2013-06-27 03:55:00,